This demonstration page uses our WeatherBlox Daily Observations layout. Learn more.

Left ArrowRight Arrow

39.92423, -83.80882

Hourly Observations for November 19, 2015

Temp ( °F °C ) Dew Point ( °F °C ) Humidity (%) Winds ( mph kmh ) Pressure ( in mb ) Visibility ( mi km ) Precip ( " mm )
12:56 am 00:56 Mostly Clear 59 15 55 12.7 86 86 SSW 13 20 29.83 1010 10 16.0934 0 0
1:09 am 01:09 Mostly Cloudy 59 15 55 13 88 88 SW 9 15 29.83 1010 10 16.0934 0 0
1:56 am 01:56 Partly Cloudy 55 12.7 49 9.4 81 81 SSW 14 22 29.85 1011 10 16.0934 0 0
2:56 am 02:56 Cloudy 54 12.2 48 8.8 80 80 S 9 15 29.87 1012 10 16.0934 0 0
3:56 am 03:56 Cloudy 54 12.2 47 8.3 77 77 S 10 17 29.88 1012 10 16.0934 0 0
4:56 am 04:56 Mostly Clear 52 11.1 47 8.3 83 83 SSW 15 24 29.89 1012 10 16.0934 0 0
5:56 am 05:56 Partly Cloudy 51 10.5 46 7.7 83 83 S 12 19 29.92 1013 10 16.0934 0 0
6:56 am 06:56 Clear 49 9.4 46 7.7 89 89 S 12 19 29.93 1013 10 16.0934 0 0
7:56 am 07:56 Sunny 48 8.8 46 7.7 93 93 S 10 17 29.95 1014 10 16.0934 0 0
8:56 am 08:56 Sunny 50 10 47 8.3 89 89 S 13 20 29.96 1015 10 16.0934 0 0
9:56 am 09:56 Sunny 53 11.6 45 7.2 75 75 S 17 28 29.97 1015 10 16.0934 0 0
10:56 am 10:56 Partly Cloudy 53 11.6 45 7.2 75 75 SSW 18 30 29.99 1016 10 16.0934 0 0
11:56 am 11:56 Mostly Sunny 54 12.2 45 7.2 72 72 SW 20 31 29.99 1016 10 16.0934 0 0
12:56 pm 12:56 Mostly Cloudy 56 13.3 44 6.6 64 64 SW 17 28 30 1016 10 16.0934 0 0
1:56 pm 13:56 Cloudy 54 12.2 42 5.5 64 64 SW 20 31 30.02 1017 10 16.0934 0 0
2:56 pm 14:56 Mostly Sunny 54 12.2 40 4.4 59 59 WSW 24 39 30.04 1017 10 16.0934 0 0
3:56 pm 15:56 Sunny 53 11.6 38 3.3 57 57 SW 23 37 30.06 1018 10 16.0934 0 0
4:56 pm 16:56 Sunny 50 10 33 0.5 52 52 SW 16 26 30.08 1019 10 16.0934 0 0
5:56 pm 17:56 Clear 46 7.7 32 0 59 59 SW 13 20 30.11 1020 10 16.0934 0 0
6:56 pm 18:56 Clear 45 7.2 30 -1.1 56 56 SW 13 20 30.14 1021 10 16.0934 0 0
7:56 pm 19:56 Clear 44 6.6 28 -2.2 54 54 WSW 13 20 30.17 1022 10 16.0934 0 0
8:56 pm 20:56 Clear 43 6.1 24 -4.4 47 47 W 16 26 30.2 1023 10 16.0934 0 0
9:56 pm 21:56 Clear 41 5 23 -5 49 49 WSW 13 20 30.22 1023 10 16.0934 0 0
10:56 pm 22:56 Clear 41 5 20 -6.6 43 43 WSW 14 22 30.24 1024 10 16.0934 0 0
11:56 pm 23:56 Clear 37 2.7 21 -6.1 53 53 WSW 9 15 30.25 1025 10 16.0934 0 0

Powered by AerisWeather